Location: Unspecified
(43.4354°N, 0.0000°E)
Time: 04:10:18
(UTC+00:00)

A-11 Canister half - Pass Details

Date: 21 June 2019
Orbit: 1514 x 1685 km, 47.2° (Epoch: 19 July)

Event Time Altitude Azimuth Distance (km) Brightness Sun altitude
Rises 11:48:53 0° 248° (WSW) 4,892 11.7 69.8°
Reaches altitude 10° 11:52:03 10° 248° (WSW) 3,888 11.3 69.9°
Maximum altitude 12:02:02 88° 338° (NNW) 1,612 10.8 70.0°
Drops below altitude 10° 12:11:39 10° 70° (ENE) 3,759 11.1 69.9°
Sets 12:14:40 0° 71° (ENE) 4,723 11.5 69.8°
